Home   Weather   Prešov   Past weeks

Flag for Slovakia Past Weather in Prešov, Slovakia — Yesterday and Last 2 Weeks

Now
25 °F

Passing clouds.


Feels Like: 18 °F
Forecast: 17 / 28 °F
Wind: 6 mph from South

Location: Kosice - Barca

Current Time: Jan 23, 2017 at 4:20:07 pm

Latest Report: Jan 23, 2017 at 3:30 pm


Visibility: 4 mi

Pressure: 30.30 "Hg

Humidity: 86%

Dew Point: 21 °F

Location of PrešovLocation

Past Weather in Prešov — Graph

°F

Prešov Temperature Yesterday

Maximum temperature yesterday: 28 °F (at 1:30 pm)
Minimum temperature yesterday: 25 °F (at 12:00 am)
Average temperature yesterday: 26 °F

High & Low Weather Summary for the Past Weeks

 TemperatureHumidityPressure
High32 °F (Jan 14, 2:30 am)100% (Jan 13, 2:00 pm)30.63 "Hg (Jan 13, 2:00 pm)
Low0 °F (Jan 20, 7:30 am)53% (Jan 8, 3:00 pm)29.36 "Hg (Jan 14, 1:30 am)
Average21 °F81%30.20 "Hg
* Reported Jan 8 3:00 pm — Jan 23 3:00 pm, Prešov, Weather by CustomWeather, © 2017

Note: Actual official high and low records may vary slightly from our data, if they occured in-between our weather recording intervals... More about our weather records

Advertising

Prešov Weather History for the Previous 24 Hours

Scroll right to see more
 ConditionsComfort  
Time TempWeatherWind HumidityBarometerVisibility
3:00 pm
Mon, Jan 23
27 °FPassing clouds.7 mph86%30.33 "Hg4 mi
2:30 pm27 °FPassing clouds.7 mph86%30.33 "Hg4 mi
2:00 pm27 °FPassing clouds.7 mph86%30.33 "Hg4 mi
1:30 pm28 °FPartly sunny.7 mph80%30.33 "Hg4 mi
1:00 pm28 °FPartly sunny.5 mph80%30.36 "Hg4 mi
12:30 pm28 °FPartly sunny.6 mph80%30.36 "Hg4 mi
12:00 pm27 °FOvercast.6 mph86%30.36 "Hg4 mi
11:30 am27 °FLow clouds.6 mph86%30.39 "Hg4 mi
11:00 am27 °FLow clouds.6 mph86%30.39 "Hg4 mi
10:30 am27 °FLow clouds.6 mph80%30.42 "Hg4 mi
10:00 am27 °FLow clouds.6 mph80%30.42 "Hg4 mi
9:30 am27 °FLow clouds.6 mph80%30.42 "Hg4 mi
9:00 am27 °FOvercast.7 mph80%30.42 "Hg4 mi
8:00 am27 °FOvercast.7 mph80%30.42 "Hg5 mi
7:30 am27 °FOvercast.6 mph80%30.42 "Hg4 mi
7:00 am27 °FOvercast.6 mph80%30.42 "Hg4 mi
6:30 am27 °FPassing clouds.6 mph80%30.42 "Hg4 mi
6:00 am27 °FOvercast.7 mph80%30.42 "Hg4 mi
5:30 am27 °FIce fog.3 mph86%30.42 "Hg2 mi
5:00 am27 °FIce fog.6 mph86%30.45 "Hg2 mi
4:30 am25 °FIce fog.6 mph93%30.45 "Hg2 mi
4:00 am25 °FIce fog.6 mph93%30.45 "Hg2 mi
3:30 am25 °FIce fog.3 mph93%30.45 "Hg2 mi
3:00 am27 °FIce fog.5 mph80%30.45 "Hg2 mi
2:30 am27 °FIce fog.2 mph80%30.48 "Hg2 mi
2:00 am27 °FIce fog.6 mph80%30.48 "Hg2 mi
1:30 am27 °FIce fog.6 mph80%30.48 "Hg2 mi
1:00 am27 °FIce fog.3 mph80%30.48 "Hg2 mi
12:30 am25 °FIce fog.3 mph93%30.48 "Hg2 mi
12:00 am25 °FIce fog.3 mph93%30.48 "Hg2 mi
11:30 pm
Sun, Jan 22
25 °FIce fog.5 mph93%30.51 "Hg2 mi
11:00 pm25 °FIce fog.3 mph93%30.51 "Hg2 mi
10:30 pm25 °FIce fog.2 mph93%30.51 "Hg2 mi
10:00 pm27 °FIce fog.2 mph86%30.51 "Hg3 mi
9:30 pm25 °FIce fog.2 mph93%30.51 "Hg2 mi
9:00 pm25 °FIce fog.1 mph93%30.51 "Hg2 mi
8:30 pm27 °FIce fog.2 mph86%30.51 "Hg2 mi
8:00 pm27 °FIce fog.2 mph86%30.51 "Hg2 mi
7:30 pm27 °FIce fog.3 mph86%30.51 "Hg2 mi
7:00 pm27 °FIce fog.2 mph86%30.51 "Hg2 mi
6:30 pm27 °FIce fog.3 mph86%30.51 "Hg2 mi
6:00 pm27 °FIce fog.2 mph86%30.51 "Hg2 mi
5:30 pm27 °FIce fog.1 mph86%30.51 "Hg2 mi
5:00 pm27 °FIce fog.3 mph86%30.51 "Hg1 mi
4:30 pm27 °FIce fog.3 mph86%30.51 "Hg1 mi
4:00 pm27 °FIce fog.3 mph86%30.51 "Hg1 mi
Weather by CustomWeather, © 2017

See weather overviewHow to use our weather pages